Regional Weather Roundup
Issued by NWS Wakefield, VA

Home | Current Version | Previous Version | Graphics & Text | Print | Product List | Glossary On
Versions: 1 2 3 4 5 6 7 8 9 10 11 12 13 14 15 16 17 18 19 20 21 22 23 24 25 26 27 28
000
ASUS41 KAKQ 181415
RWRAKQ

REGIONAL WEATHER ROUNDUP
NATIONAL WEATHER SERVICE WAKEFIELD VA
900 AM EST WED JAN 18 2017

Note: "fair" indicates few or no clouds below 12,000 feet with no
significant weather and/or obstructions to visibility. * = Denotes
station may not report precipitation (e.g., rain,snow,etc.),
thunder or fog.

VAZ042-051-052>054-056-181500-
NORTHERN VIRGINIA

CITY           SKY/WX    TMP DP  RH WIND       PRES   REMARKS
WASH NATIONAL  CLOUDY    52  45  77 NW15G22   29.93R
DULLES         CLOUDY    51  42  71 NW14      29.95R
FORT BELVOIR   CLOUDY    51  49  95 NW15G28   29.92R
QUANTICO       CLOUDY    48  46  93 N16G25    29.94R
FREDERICKSBRG* CLOUDY    53  48  81 N6        29.94R
STAFFORD*      CLOUDY    51  47  84 NW9G16    29.97R
WARRENTON      CLOUDY    51  43  74 N14       29.95R
CULPEPER*      CLOUDY    49  48  97 NW8       29.96R
MANASSAS*      NOT AVBL
LEESBURG*      CLOUDY    54  46  76 NW8       29.97R
WINCHESTER     CLOUDY    45  41  87 NW5       29.98R
FRONT ROYAL*   CLOUDY    41  41 100 CALM      29.98R
LURAY*         CLOUDY    45  45 100 E3        29.97R
$$

VAZ048-049-060>072-079>083-181500-
CENTRAL AND SOUTH CENTRAL VIRGINIA

CITY           SKY/WX    TMP DP  RH WIND       PRES   REMARKS
RICHMOND       PTSUNNY   57  56  96 N6        29.91R
CHESTERFIELD*  FAIR      59  43  55 NW6       29.92R
PETERSBURG*    CLOUDY    57  52  82 W6        29.92R
HANOVER        MOSUNNY   56  54  93 NW5       29.95R FOG
TAPPAHANNOCK*  SUNNY     57  57  99 N8        29.92S
QUINTON*       PTSUNNY   55  55 100 MISG      29.90R
CHARLOTTSVILLE PTSUNNY   57  51  80 VRB3      29.95R
GORDONSVILLE*  FOG       48  48 100 CALM      29.94R VSB 3/4
ORANGE*          N/A     50  50 100 CALM      29.96R FOG
LOUISA*        FOG       55  55 100 NW3       29.93R VSB<1/4
BUMPASS*       CLOUDY    54  54 100 N3        29.94R
FARMVILLE*     SUNNY     58  51  76 SW3       29.94R
CREWE*         FAIR      59  53  83 W7        29.94R
FORT PICKETT*  FAIR      58  52  82 W9        29.94R
CHASE CITY*    FAIR      55  53  94 W6        29.96R
CLARKSVILLE*   FAIR      55  55 100 NW5       29.96R
SOUTH HILL*    MOSUNNY   58  54  86 W6        30.00S
LAWRENCEVILLE* FAIR      58  53  81 W5        29.94R
EMPORIA*       PTSUNNY   59  55  88 SW6       29.95R
$$

VAZ088>098-181500-
SOUTHEAST VIRGINIA

CITY           SKY/WX    TMP DP  RH WIND       PRES   REMARKS
NORFOLK        PTSUNNY   60  56  86 W6        29.89R
VIRGINIA BEACH PTSUNNY   60  56  86 W6        29.88R
NORFOLK NAVAL  PTSUNNY   59  55  87 W5        29.91R
WEST POINT*    PTSUNNY   56  56  98 CALM      29.91S
SALUDA*        CLOUDY    55  55 100 NW3       29.90S
NEWPORT NEWS   PTSUNNY   59  56  89 W7        29.89R
LANGLEY AFB    PTSUNNY   60  58  91 W10       29.88R
FORT EUSTIS    PTSUNNY   56  54  93 CALM      29.87R
WILLIAMSBURG*  PTSUNNY   61  57  88 NW8       29.91R
HR EXEC AP*    FAIR      61  55  82 W6        29.88R
FRANKLIN*      CLOUDY    60  55  83 W10       29.91R
US460-WAKEFLD  CLOUDY    60  56  86 W8        29.91R
$$

VAZ020-022-025-037-045-181500-
WEST CENTRAL AND SOUTHWEST VIRGINIA

CITY           SKY/WX    TMP DP  RH WIND       PRES   REMARKS
STAUNTON*      PTSUNNY   52  41  65 NW6       29.98R
WAYNESBORO*    CLOUDY    54  39  56 W8        29.96R
HOT SPRINGS VA CLOUDY    39  37  93 W14G29    29.96R
LYNCHBURG      MOSUNNY   55  44  66 W3        29.99R
DANVILLE       SUNNY     56  56 100 W5        29.99R
SOUTH BOSTON*  FAIR      56  54  92 W7        29.98R
MARTINSVILLE   SUNNY     56  44  66 W6        30.03R
ROANOKE        PTSUNNY   56  39  53 W20G35    30.02R
BLACKSBURG     PTSUNNY   50  40  68 W12G18    30.05R
DUBLIN*        MOSUNNY   50  39  67 NW18G29   30.04R
MARION*        CLOUDY    50  41  70 W18       30.08S
HILLSVILLE*    MOSUNNY   48  40  73 NW23G31   30.01R
RICHLANDS*     FAIR     N/A N/A N/A W6G18     30.11R
WISE*          MOSUNNY   45  37  76 W7        30.14R
ABINGDON*      CLOUDY    50  47  87 W7        30.12R
$$

MDZ021>025-VAZ099-100-181500-
SOUTHERN MARYLAND AND THE DELMARVA PENINSULA

CITY           SKY/WX    TMP DP  RH WIND       PRES   REMARKS
PATUXENT RIVER FOG       45  45 100 N7        29.92R VSB 1/8
BAY BRIDGE APT FOG       41  41 100 NW5       29.93R VSB<1/4
LEONARDTOWN    CLOUDY    46  45  93 CALM      29.94R VSB 1/2
DOVER          FOG       43  43 100 N8        29.85R VSB 1/4
GEORGETOWN     MOSUNNY   48  46  93 CALM      29.90S
EASTON         FOG       46  45  93 NW3       29.95R VSB 3/4
CAMBRIDGE      CLOUDY    45  45 100 NW5       29.91R
SALISBURY      CLOUDY    51  49  92 NW6       29.90R
OCEAN CITY     PTSUNNY   52  51  97 N8        29.89S
WALLOPS ISLAND CLOUDY    54  54 100 NW7       29.90R FOG
ACCOMACK*      CLOUDY    55  53  94 N7        29.89S FOG
$$

NCZ012>017-030>032-181500-
NORTH CENTRAL AND EASTERN NORTH CAROLINA

CITY           SKY/WX    TMP DP  RH WIND       PRES   REMARKS
ROANOKE RAPIDS FAIR      59  55  88 CALM      29.93R
RALEIGH        CLOUDY    62  57  83 W7        29.97R
ELIZABETH CITY CLOUDY    60  57  89 SW10      29.91R
AHOSKIE*         N/A     59  56  91 CALM      29.93R
EDENTON*       CLOUDY    61  58  89 CALM      29.92S
CURRITUCK*     CLOUDY    59  59 100 SW7       29.90R
KILL DEVIL HLS NOT AVBL
MANTEO         LGT RAIN  57  57 100 W7        29.90F
CAPE HATTERAS  PTSUNNY   61  56  83 W13G21    29.95S HAZE
TARBORO*       NOT AVBL
GOLDSBORO      LGT RAIN  62  62 100 SW7       29.94S
WASHINGTON     LGT RAIN  60  58  94 SW7       29.95S
GREENVILLE     LGT RAIN  61  59  94 SW3       29.97S
NEW BERN       CLOUDY    64  57  78 SW9       29.97S
WILMINGTON     CLOUDY    65  59  81 SW13      29.99F
$$

VAZ048-181500-
ELSEWHERE

CITY           SKY/WX    TMP DP  RH WIND       PRES   REMARKS
HARRISBURG PA  FOG       39  39 100 CALM      29.94R VSB 3/4
BALTIMORE      CLOUDY    49  47  93 NW10      29.92S
ANNAPOLIS      FOG       46  44  93 CALM      29.92R VSB 1/4
ANDREWS AFB    CLOUDY    49  49  99 N9        29.91R
PHILADELPHIA   CLOUDY    42  39  89 N6        29.93S
HENDERSON NC   CLOUDY    56  53  86 CALM      29.97R
GREENSBORO     MOSUNNY   59  50  72 NW14      29.99R
ROCKY MOUNT    CLOUDY    62  58  86 SW6       29.94S
$$

VAZ100-181500-
MARINE

STATION/POSITION TIME  TEMP    WIND        PRES    WAVE   SWELL
                       AIR SEA DIR/SP/G            HT/PER HT/PER
                 (UTC) (F)     (DEG/KT/KT) (MB)    (FT/S) (FT/S)
CAPE MAY NJ      1348   40 40  340/  6/  9 1012.3R
LEWES DE         1348          310/  9/ 10   N/A
OCEAN-CITY-INLET 1348          360/  6/  7   N/A
WACHAPREAGUE VA  1348   55 48  330/  7/ 10 1012.1R
THOMAS POINT MD  1300   41 38   10/  5/  5   N/A
GOOSES REEF MD   1400   41      30/  8/  8 1013.9    0
COVE POINT MD    1348   41      20/  9/ 11 1013.9R
SOLOMONS ISLAND  1348          350/  4/  6   N/A
BISHOPS HEAD MD  1348   43 42  300/  3/  5 1012.8R
PINEY POINT MD   1348          350/  5/  5   N/A
POTOMAC MD       1400   44 41   30/ 10/ 12 1011.8    0
CAMBRIDGE MD     1348   45 39  280/  4/  4 1012.2R
LEWISETTA VA     1348   53 43  350/  3/  6 1012.0F
RAPPAHANNOCK LGT 1348           10/ 17/ 18 1012.7R
STINGRAY PT      1350   45      10/  8/ 12 1012.9R
YORK RVR RNG VA  1348   55      30/ 12/ 13 1011.6R
YORKTOWN VA      1348   57 43  300/  7/  9 1011.7R
JAMESTOWN VA     1400   53 44  320/  6/  8   N/A     0
DOMINION TERM VA 1348   57     330/  8/ 10 1012.1R
KIPTOPEKE VA     1348           20/ 11/ 16   N/A
CHES BAY BRIDGE  1348   58 42  270/ 14/ 14 1011.7R
CAPE HENRY VA    1348   60     250/ 10/ 13   N/A
WILLOUBY STN VA  1348   58     290/  9/  9 1012.9R
S CRANEY ISL VA  1348   61     290/  6/  9 1011.7R
CAPE HENRY BUOY  1342      45                N/A     2/ 4
OFFSHORE WE BUOY 1351      49                N/A     2/ 4
64NM E OF VA BCH 1250   56 57              1011.6    4/ 5
DUCK PIER NC     1348   57 45  220/ 13/ 16 1011.6F
44100 DUCK FRF   1305      47                N/A     2/ 6
44056 DUCK FRF   1330      45                N/A     1/10
OREGON INLET NC  1342   51 51  210/  9/ 11 1013.0S
HATTERAS NC      1348          240/ 12/ 17   N/A
DIAMOND SHLS NC  1250   69 71  260/ 23/ 27 1013.9    8/ 6   2/10
CAPE LOOKOUT NC  1300   62     240/ 14/ 18 1014.6F
$$




USA.gov is the U.S. government's official web portal to all federal, state and local government web resources and services.